Temp
10 10 10 10 10 10 10 10 10 10 10 10 10 10 10 10 10 10 10 10 10 10 10 10 10 10 9 9 9 9 9 9 9 8 8 8 8 8 8 8 8 8 8 8 8 8 7 7 7 7 7 7 7 7 7 7 7 7 7 7 7 6 6 6 6 6 6 6 6
9 9 9 10 10 10 10 10 10 10 10 10 10 10 10 10 10 10 10 10 10 10 10 10 10 9 9 9 9 9 9 8 8 8 8 8 8 8 8 8 8 8 8 7 7 7 7 7 7 7 7 7 7 7 7 7 7 7 6 6 6 6 6 6 6 6 6 6 6
9 9 9 9 9 10 10 10 10 10 10 10 10 10 10 10 10 10 10 10 10 10 10 9 9 9 9 9 9 8 8 8 8 8 8 8 8 8 8 8 8 7 7 7 7 7 7 7 7 7 7 7 7 7 7 7 6 6 6 6 6 6 6 6 6 6 6 5 5
9 9 9 9 9 9 9 9 10 10 10 10 10 10 10 10 10 10 10 10 9 9 9 9 9 9 9 8 8 8 8 8 8 8 8 8 8 8 8 8 7 7 7 7 7 7 7 7 7 7 7 7 7 7 7 6 6 6 6 6 6 6 6 6 6 5 5 5 5
9 9 9 9 9 9 9 9 9 9 9 9 9 9 9 9 9 9 9 9 9 9 9 9 8 8 8 8 8 7 7 7 7 7 7 7 7 7 7 7 7 7 7 7 7 7 7 7 7 7 7 7 7 7 6 6 6 6 6 6 6 6 6 5 5 5 5 5 5
9 9 9 9 9 9 9 9 9 9 9 9 9 9 9 9 9 9 9 8 8 8 8 8 8 8 7 7 7 7 7 7 7 7 7 7 7 7 7 7 7 7 7 7 7 6 6 6 7 7 6 6 6 6 6 6 6 6 6 6 6 6 5 5 5 5 5 5 5
8 9 9 9 9 9 9 9 9 9 9 9 9 9 9 8 8 8 8 8 8 8 8 7 7 7 7 7 7 7 7 7 6 6 6 6 6 6 6 6 6 6 6 6 6 6 6 6 6 6 6 6 6 6 6 6 6 6 6 6 6 6 5 5 5 5 5 5 5
8 8 8 8 9 9 9 9 9 9 9 9 8 8 8 8 8 8 7 7 7 7 7 7 7 7 7 7 7 7 6 6 6 6 6 6 6 6 6 6 6 6 6 6 6 6 6 6 6 6 6 6 6 6 6 6 6 6 6 6 6 6 5 5 5 5 5 5 5
8 8 8 8 8 8 8 8 8 8 8 8 8 8 8 7 7 7 7 7 7 7 7 7 7 7 7 7 6 6 6 6 6 6 6 6 6 6 6 6 6 6 6 6 6 6 6 6 6 6 6 6 6 6 6 6 6 6 6 6 6 5 5 5 5 5 5 5 5
8 8 8 8 8 8 8 8 8 8 8 8 7 7 7 7 7 7 7 7 7 7 7 7 7 7 6 6 6 6 6 6 6 6 6 6 6 6 6 6 6 6 6 6 6 6 6 6 6 6 6 6 6 6 6 5 5 5 5 5 5 5 5 5 5 5 5 5 5
8 8 8 8 8 8 8 8 8 8 8 7 7 7 7 7 7 7 7 7 7 7 7 7 7 7 6 6 6 6 6 6 6 6 6 6 6 6 6 6 6 6 6 6 6 6 6 6 6 6 6 5 5 5 5 5 5 5 5 5 5 5 5 5 5 5 5 5 5
8 8 8 8 8 8 8 8 8 8 7 7 7 7 7 7 7 7 7 7 7 7 7 7 7 7 7 6 6 6 6 6 6 6 6 6 6 6 6 6 6 6 6 6 6 6 6 6 6 6 5 5 5 5 5 5 5 5 5 5 5 5 5 5 5 5 4 4 4
8 8 8 8 8 8 8 8 8 7 7 7 7 7 7 7 7 7 7 7 7 7 7 7 7 7 7 7 6 6 6 6 6 6 6 6 6 6 6 6 6 6 6 6 6 6 6 6 6 6 5 5 5 5 5 5 5 5 5 5 5 4 4 4 4 4 4 4 4
8 8 8 8 8 8 8 8 7 7 7 7 7 7 7 7 7 7 7 7 7 7 7 7 7 7 7 7 6 6 6 6 6 6 6 6 6 6 6 6 6 6 6 6 6 6 6 6 6 6 5 5 5 5 5 5 5 5 5 5 5 4 4 4 4 4 4 4 4
7 8 8 8 8 8 8 8 7 7 7 7 7 7 7 7 7 7 7 7 7 7 7 7 7 7 7 7 6 6 6 6 6 6 6 6 6 6 6 6 6 6 6 6 6 6 6 5 5 5 5 5 5 5 5 5 5 5 5 5 5 4 4 4 4 4 4 4 4
7 7 8 8 8 8 8 7 7 7 7 7 7 7 7 7 7 7 7 7 7 7 7 7 7 7 7 6 6 6 6 6 6 6 6 6 6 6 6 6 6 6 6 6 6 5 5 5 5 5 5 5 5 5 5 5 5 5 5 5 4 4 4 4 4 4 4 4 4
7 7 7 7 8 8 7 7 7 7 7 7 7 7 7 7 7 7 7 7 7 7 7 7 7 7 6 6 6 6 6 6 6 6 6 6 6 6 6 6 6 6 6 6 6 6 5 5 5 5 5 5 5 5 5 5 5 5 5 4 4 4 4 4 4 4 4 4 4
7 7 7 7 7 7 7 7 7 7 7 7 7 7 7 7 7 7 7 7 7 7 7 7 7 7 6 6 6 6 6 6 6 6 6 6 6 6 6 6 6 6 6 6 6 6 5 5 5 5 5 5 5 5 5 5 5 5 5 4 4 4 4 4 4 4 4 3 3
7 7 7 7 7 7 7 7 7 7 7 6 6 6 6 6 6 6 7 7 7 6 6 6 6 6 6 6 6 6 6 6 6 6 6 6 6 6 6 6 6 6 6 6 6 6 5 5 5 5 5 5 5 5 5 5 5 5 5 5 4 4 4 4 4 4 4 3 3
7 7 7 7 7 7 7 7 7 7 6 6 6 6 6 6 6 6 6 6 6 6 6 6 6 6 6 6 6 6 6 6 6 6 6 6 6 6 6 6 6 6 6 6 6 6 5 5 5 5 5 5 5 5 5 5 5 5 5 5 4 4 4 4 4 4 4 4 3
7 7 7 7 7 7 7 7 7 7 6 6 6 6 6 6 6 6 6 6 6 6 6 6 6 6 6 6 6 6 6 6 6 6 6 6 6 6 6 6 6 6 6 6 6 5 5 5 5 5 5 5 5 5 5 5 5 5 5 5 4 4 4 4 4 4 4 4 3
7 7 7 7 7 7 7 7 7 7 6 6 6 6 6 6 6 6 6 6 6 6 6 6 6 6 6 6 6 6 6 6 6 6 6 6 6 6 6 6 6 6 6 5 5 5 5 5 5 5 5 5 5 5 5 5 5 5 4 4 4 4 4 4 4 4 4 4 3
7 7 7 7 7 7 7 7 7 7 6 6 6 6 6 6 6 6 6 6 6 6 6 6 6 6 6 6 6 6 6 6 6 6 6 6 6 6 6 5 5 5 5 5 5 5 5 5 5 5 5 5 5 5 5 5 5 4 4 4 4 4 4 4 4 4 4 4 3
7 7 7 7 7 7 7 7 7 7 6 6 6 6 6 6 6 6 6 6 6 6 6 6 6 6 6 6 6 6 6 6 6 6 6 6 6 5 5 5 5 5 5 5 5 5 5 5 5 5 5 5 5 5 4 4 4 4 4 4 4 4 4 4 4 4 4 4 3
7 7 7 7 7 7 7 7 7 7 6 6 6 6 6 6 6 6 6 6 6 6 6 6 6 6 6 6 6 6 6 6 6 6 5 5 5 5 5 5 5 5 5 5 5 4 4 4 4 4 4 4 4 4 4 4 4 4 4 4 4 4 4 4 4 4 4 3 3
6 6 6 7 7 7 7 7 7 6 6 6 6 6 6 6 6 6 6 6 6 6 6 6 6 6 6 6 5 5 5 5 5 5 5 5 5 5 5 5 4 4 4 4 4 4 4 4 4 4 4 4 4 4 4 4 4 4 4 4 4 4 4 4 4 4 4 3 3
6 6 6 6 7 7 7 7 7 6 6 6 6 6 6 6 6 6 6 6 6 6 6 6 5 5 5 5 5 5 5 5 5 5 5 5 5 4 4 4 4 4 4 4 4 3 3 3 3 3 3 4 4 4 4 4 4 4 4 4 4 4 4 4 4 4 3 3 3
6 6 6 6 7 7 7 7 7 7 6 6 6 6 6 6 6 6 6 6 6 6 6 5 5 5 5 5 5 5 5 5 5 5 5 4 4 4 4 4 4 4 4 4 3 3 3 3 3 3 3 3 3 3 3 3 3 3 3 3 3 3 3 3 3 3 3 3 3
6 6 6 7 7 7 7 7 7 7 6 6 6 6 6 6 6 6 6 6 6 6 5 5 5 5 5 5 5 5 5 5 4 4 4 4 4 4 4 4 4 4 4 3 3 3 3 3 3 3 3 3 3 3 3 3 3 3 3 3 3 3 3 3 3 3 3 3 3
6 6 6 7 7 7 7 7 7 7 6 6 6 6 6 6 6 6 6 6 5 5 5 5 5 5 5 5 5 5 5 4 4 4 4 4 4 4 4 4 4 4 3 3 3 3 3 3 2 2 2 2 2 3 3 3 3 3 3 3 3 3 3 3 3 3 3 3 3
6 6 7 7 7 7 7 7 7 6 6 6 6 6 6 6 6 6 5 5 5 5 5 5 5 5 5 4 4 4 4 4 4 4 4 4 4 4 4 4 4 4 3 3 3 3 3 3 2 2 2 2 2 2 2 3 3 3 3 3 3 3 3 3 3 3 3 3 3
6 7 7 7 7 7 7 7 6 6 6 6 6 6 6 6 5 5 5 5 5 5 5 5 4 4 4 4 4 4 4 4 4 4 4 4 4 4 4 4 4 4 3 3 3 3 3 3 2 2 2 2 2 2 2 2 2 3 3 3 3 3 3 3 3 3 3 3 3
7 7 7 7 7 7 7 6 6 6 6 6 6 6 5 5 5 5 5 5 4 4 4 4 4 4 4 4 4 4 4 4 4 4 4 4 4 4 4 4 4 3 3 3 3 3 3 3 2 2 2 2 2 2 2 2 2 2 2 3 3 3 3 3 3 3 3 3 3
7 7 7 7 7 7 6 6 6 6 6 6 5 5 5 5 5 4 4 4 4 4 4 4 4 4 4 4 4 4 4 4 4 4 4 4 4 4 4 4 4 3 3 3 3 3 3 3 2 2 2 2 2 2 2 2 2 2 2 2 3 3 3 3 3 3 3 3 3
7 7 7 7 7 6 6 6 6 6 5 5 5 5 5 4 4 4 4 4 4 4 4 4 4 4 4 4 4 4 4 4 4 4 4 4 4 4 4 3 3 3 3 3 3 3 3 3 2 2 2 2 2 2 2 2 2 2 2 2 2 2 2 2 2 2 3 2 2
7 7 7 6 6 6 6 6 6 5 5 5 5 5 4 4 4 4 4 4 4 4 4 4 4 4 4 4 4 3 3 4 4 4 4 4 3 3 3 3 3 3 3 3 3 3 3 3 2 2 2 2 2 2 2 2 2 2 2 2 2 2 2 2 2 2 2 2 2
7 7 6 6 6 6 6 6 5 5 5 5 5 4 4 4 4 4 3 4 4 4 4 4 4 4 4 4 4 3 4 4 4 4 4 3 3 3 3 3 3 3 3 3 3 3 3 2 2 2 2 2 2 2 2 2 2 2 2 2 2 2 2 2 2 2 2 2 2
7 6 6 6 6 6 6 5 5 5 5 4 4 4 4 4 4 4 4 4 4 4 4 4 4 4 4 3 4 4 4 4 4 3 3 3 3 3 3 3 3 3 3 3 2 2 2 2 2 2 2 2 2 1 1 1 2 2 2 2 2 2 2 2 2 2 2 2 2
6 6 6 6 6 5 5 5 5 5 5 4 4 4 4 4 4 4 4 4 4 4 4 4 4 4 3 4 4 4 4 3 3 3 3 3 3 3 3 3 3 3 3 3 2 2 2 2 2 2 2 2 2 1 1 1 2 2 2 2 2 2 2 2 2 2 2 2 2
6 6 6 6 5 5 5 5 5 5 4 4 4 4 4 4 4 4 4 4 4 4 4 4 4 4 3 4 4 4 3 3 3 3 3 3 3 3 3 3 3 3 3 3 2 2 2 2 2 2 2 2 1 1 1 1 1 2 2 2 2 2 2 2 1 2 2 2 2
6 6 5 5 5 5 5 5 5 5 4 4 4 4 4 4 4 4 4 4 4 4 4 4 3 3 3 3 3 3 3 3 3 3 3 3 3 3 3 3 3 3 3 3 2 2 2 2 2 2 2 2 1 1 1 1 1 2 2 2 2 2 2 1 1 1 2 2 2
Height
1493 1493 1494 1494 1494 1494 1494 1494 1494 1495 1495 1495 1495 1495 1495 1495 1495 1495 1495 1495 1495 1495 1495 1495 1496 1496 1496 1496 1496 1496 1496 1496 1496 1496 1496 1496 1496 1496 1496 1496 1496 1496 1496 1496 1496 1496 1496 1496 1496 1496 1496 1496 1496 1496 1496 1496 1496 1496 1496 1496 1496 1496 1495 1495 1495 1495 1495 1495 1495
1492 1492 1492 1492 1493 1493 1493 1493 1493 1493 1494 1494 1494 1494 1494 1494 1494 1494 1494 1494 1494 1494 1494 1494 1494 1494 1495 1495 1495 1495 1495 1495 1495 1495 1495 1495 1495 1495 1495 1495 1495 1495 1495 1495 1495 1495 1495 1495 1495 1495 1495 1495 1495 1495 1495 1495 1495 1494 1494 1494 1494 1494 1494 1494 1494 1494 1494 1494 1494
1490 1491 1491 1491 1491 1491 1491 1492 1492 1492 1492 1492 1493 1493 1493 1493 1493 1493 1493 1493 1493 1493 1493 1493 1493 1493 1493 1493 1493 1493 1494 1494 1494 1494 1494 1494 1494 1494 1494 1494 1494 1494 1494 1494 1493 1494 1494 1494 1494 1494 1494 1494 1494 1493 1493 1493 1493 1493 1492 1492 1492 1492 1492 1492 1492 1492 1492 1492 1492
1489 1489 1489 1490 1490 1490 1490 1491 1491 1491 1491 1491 1491 1491 1491 1491 1492 1492 1492 1492 1491 1491 1491 1492 1492 1492 1492 1492 1492 1492 1492 1492 1493 1493 1493 1493 1493 1493 1493 1493 1493 1493 1493 1493 1492 1492 1492 1493 1493 1493 1493 1492 1492 1492 1492 1492 1491 1491 1491 1491 1491 1491 1491 1491 1491 1491 1491 1491 1491
1487 1487 1488 1488 1488 1489 1489 1489 1489 1490 1490 1490 1490 1490 1490 1491 1491 1491 1490 1490 1490 1490 1491 1491 1491 1491 1491 1491 1491 1491 1491 1491 1491 1491 1492 1492 1492 1492 1492 1492 1492 1492 1492 1492 1492 1491 1491 1491 1491 1491 1491 1491 1491 1491 1491 1491 1491 1490 1490 1490 1490 1490 1490 1490 1490 1490 1490 1490 1490
1486 1486 1486 1487 1487 1487 1487 1488 1488 1488 1489 1489 1489 1489 1489 1489 1489 1489 1489 1489 1489 1489 1489 1489 1489 1489 1490 1490 1490 1490 1490 1490 1490 1491 1491 1491 1491 1491 1491 1491 1491 1491 1491 1491 1491 1491 1490 1490 1490 1490 1490 1490 1490 1490 1490 1490 1489 1489 1489 1489 1488 1488 1488 1488 1488 1489 1489 1489 1489
1484 1485 1485 1485 1486 1486 1486 1487 1487 1487 1487 1487 1487 1487 1487 1487 1487 1487 1487 1487 1487 1487 1488 1488 1488 1488 1488 1488 1488 1488 1489 1489 1489 1489 1489 1489 1489 1489 1490 1490 1490 1490 1490 1490 1490 1489 1489 1489 1489 1489 1489 1489 1489 1489 1488 1488 1488 1488 1488 1487 1487 1487 1487 1487 1487 1487 1487 1487 1487
1483 1483 1484 1484 1484 1485 1485 1485 1486 1486 1486 1486 1486 1486 1486 1486 1486 1486 1486 1486 1486 1486 1486 1486 1486 1486 1486 1487 1487 1487 1487 1487 1487 1488 1488 1488 1488 1488 1488 1488 1488 1488 1488 1488 1488 1488 1488 1488 1488 1487 1487 1487 1487 1487 1487 1487 1487 1486 1486 1486 1486 1486 1486 1486 1486 1486 1486 1486 1486
1481 1481 1482 1482 1483 1483 1483 1484 1484 1484 1484 1484 1484 1484 1485 1485 1485 1485 1485 1485 1485 1485 1485 1485 1485 1485 1485 1485 1486 1486 1486 1486 1486 1486 1486 1486 1486 1486 1486 1486 1486 1486 1486 1487 1487 1486 1486 1486 1486 1486 1486 1486 1486 1486 1486 1486 1485 1485 1485 1485 1485 1485 1485 1485 1485 1485 1485 1485 1485
1479 1480 1480 1481 1481 1481 1482 1482 1482 1482 1483 1483 1483 1483 1483 1483 1483 1483 1483 1483 1483 1483 1483 1484 1484 1484 1484 1484 1484 1484 1484 1484 1484 1485 1485 1485 1485 1485 1485 1485 1485 1485 1485 1485 1485 1485 1485 1485 1485 1485 1484 1484 1484 1484 1484 1484 1484 1484 1483 1483 1483 1483 1483 1483 1483 1483 1484 1484 1484
1478 1478 1478 1479 1479 1480 1480 1480 1481 1481 1481 1481 1481 1481 1481 1482 1482 1482 1482 1482 1482 1482 1482 1482 1482 1482 1482 1482 1483 1483 1483 1483 1483 1483 1483 1483 1483 1483 1483 1483 1483 1483 1483 1483 1483 1483 1483 1483 1483 1483 1483 1483 1483 1482 1482 1482 1482 1482 1482 1482 1482 1482 1482 1482 1482 1482 1482 1482 1482
1476 1476 1477 1477 1478 1478 1478 1479 1479 1479 1480 1480 1480 1480 1480 1480 1480 1480 1480 1480 1480 1481 1481 1481 1481 1481 1481 1481 1481 1481 1481 1481 1481 1481 1481 1481 1481 1481 1481 1481 1481 1481 1481 1481 1481 1481 1481 1481 1481 1481 1481 1481 1481 1481 1481 1481 1481 1481 1481 1480 1480 1480 1480 1480 1480 1480 1480 1481 1481
1474 1475 1475 1476 1476 1476 1477 1477 1477 1478 1478 1478 1478 1478 1478 1478 1478 1478 1479 1479 1479 1479 1479 1479 1479 1479 1479 1480 1480 1480 1480 1480 1480 1480 1480 1480 1480 1480 1480 1480 1480 1480 1480 1480 1480 1480 1480 1480 1480 1480 1480 1480 1479 1479 1479 1479 1479 1479 1479 1479 1479 1479 1478 1478 1478 1478 1479 1479 1479
1472 1473 1473 1474 1474 1475 1475 1476 1476 1476 1476 1476 1476 1476 1476 1477 1477 1477 1477 1477 1477 1477 1477 1478 1478 1478 1478 1478 1478 1478 1478 1478 1478 1478 1478 1478 1479 1479 1478 1478 1478 1478 1478 1478 1478 1478 1478 1478 1478 1478 1478 1478 1478 1478 1478 1478 1477 1477 1477 1477 1477 1477 1477 1477 1477 1477 1477 1477 1477
1470 1471 1471 1472 1472 1473 1473 1474 1474 1474 1475 1475 1475 1475 1475 1475 1475 1476 1476 1476 1476 1476 1476 1476 1476 1476 1476 1476 1476 1477 1477 1477 1477 1477 1477 1477 1477 1477 1477 1477 1477 1477 1477 1477 1476 1476 1476 1476 1476 1476 1476 1476 1476 1476 1476 1476 1476 1476 1476 1476 1476 1476 1476 1475 1475 1475 1475 1475 1475
1468 1468 1469 1470 1470 1471 1471 1472 1472 1473 1473 1473 1473 1473 1473 1474 1474 1474 1474 1474 1474 1475 1475 1475 1475 1475 1475 1475 1475 1475 1475 1476 1476 1476 1476 1476 1476 1476 1476 1476 1476 1476 1475 1475 1475 1475 1475 1475 1475 1475 1475 1475 1475 1475 1475 1475 1475 1474 1474 1474 1474 1474 1474 1474 1474 1474 1473 1473 1473
1466 1466 1467 1467 1468 1469 1470 1470 1471 1471 1471 1471 1471 1471 1472 1472 1472 1472 1472 1473 1473 1473 1473 1473 1473 1474 1474 1474 1474 1474 1474 1474 1474 1474 1474 1474 1474 1474 1474 1474 1474 1474 1474 1474 1474 1474 1474 1474 1474 1473 1473 1473 1473 1473 1473 1473 1473 1473 1473 1473 1473 1472 1472 1472 1472 1472 1472 1472 1472
1463 1464 1465 1466 1466 1467 1468 1468 1469 1469 1470 1470 1470 1470 1470 1470 1471 1471 1471 1471 1471 1472 1472 1472 1472 1472 1472 1472 1473 1473 1473 1473 1473 1473 1473 1473 1473 1473 1473 1473 1473 1473 1473 1473 1473 1473 1472 1472 1472 1472 1472 1472 1472 1472 1471 1471 1471 1471 1471 1471 1471 1471 1471 1471 1471 1471 1471 1471 1471
1461 1462 1463 1464 1464 1465 1466 1466 1467 1467 1468 1468 1468 1468 1468 1469 1469 1469 1470 1470 1470 1470 1470 1471 1471 1471 1471 1471 1471 1471 1472 1472 1472 1472 1472 1472 1472 1472 1472 1472 1471 1471 1471 1471 1471 1471 1471 1471 1471 1471 1471 1471 1471 1471 1470 1470 1470 1470 1470 1470 1470 1470 1470 1469 1469 1469 1469 1469 1469
1460 1460 1461 1462 1463 1463 1464 1465 1465 1466 1466 1466 1466 1466 1467 1467 1467 1468 1468 1468 1468 1469 1469 1469 1469 1469 1470 1470 1470 1470 1470 1471 1471 1471 1471 1471 1471 1471 1471 1471 1470 1470 1470 1470 1470 1470 1470 1470 1470 1470 1470 1470 1469 1469 1469 1469 1469 1469 1469 1468 1468 1468 1468 1468 1468 1468 1468 1468 1468
1458 1458 1459 1460 1461 1462 1462 1463 1463 1464 1464 1465 1465 1465 1465 1466 1466 1466 1466 1466 1467 1467 1467 1467 1468 1468 1468 1468 1468 1469 1469 1469 1469 1469 1469 1469 1469 1469 1469 1469 1469 1469 1469 1469 1469 1469 1469 1469 1468 1468 1468 1468 1468 1468 1468 1468 1467 1467 1467 1467 1467 1467 1467 1466 1466 1466 1466 1466 1466
1456 1457 1458 1458 1459 1460 1461 1461 1461 1462 1462 1463 1463 1463 1464 1464 1464 1464 1465 1465 1465 1465 1466 1466 1466 1466 1466 1466 1467 1467 1467 1467 1467 1468 1468 1468 1468 1468 1468 1468 1468 1467 1467 1467 1467 1467 1467 1467 1467 1467 1467 1467 1466 1466 1466 1466 1466 1466 1466 1466 1466 1466 1466 1465 1465 1465 1465 1465 1465
1454 1455 1456 1457 1457 1458 1459 1459 1460 1460 1461 1461 1461 1462 1462 1462 1462 1463 1463 1463 1463 1463 1464 1464 1464 1465 1465 1465 1465 1465 1465 1466 1466 1466 1466 1466 1466 1466 1466 1466 1466 1466 1466 1466 1466 1466 1466 1466 1465 1465 1465 1465 1465 1465 1465 1465 1465 1465 1465 1465 1464 1464 1464 1464 1464 1464 1464 1463 1463
1452 1453 1454 1455 1456 1456 1457 1457 1458 1458 1459 1459 1460 1460 1460 1461 1461 1461 1461 1461 1461 1461 1462 1462 1462 1463 1463 1463 1463 1463 1463 1464 1464 1464 1464 1464 1464 1464 1464 1464 1464 1464 1464 1464 1464 1464 1464 1464 1464 1463 1463 1463 1463 1463 1463 1463 1463 1463 1463 1463 1463 1463 1463 1462 1462 1462 1462 1462 1462
1451 1451 1452 1453 1454 1455 1455 1456 1456 1456 1457 1457 1457 1458 1458 1458 1459 1459 1459 1459 1460 1460 1460 1460 1461 1461 1461 1461 1461 1461 1462 1462 1462 1462 1462 1462 1462 1462 1462 1462 1462 1462 1462 1462 1462 1462 1462 1462 1462 1461 1461 1461 1461 1461 1461 1461 1461 1461 1461 1461 1461 1461 1461 1461 1461 1461 1461 1461 1461
1449 1450 1451 1451 1452 1453 1453 1454 1454 1455 1455 1455 1456 1456 1456 1456 1457 1457 1457 1458 1458 1458 1458 1459 1459 1459 1459 1460 1460 1460 1460 1460 1460 1460 1460 1460 1460 1460 1460 1460 1460 1460 1460 1460 1460 1460 1460 1460 1460 1460 1460 1460 1460 1460 1460 1460 1460 1460 1460 1460 1460 1460 1460 1459 1459 1459 1459 1459 1459
1447 1448 1449 1449 1450 1451 1451 1451 1452 1452 1453 1453 1453 1454 1454 1455 1455 1455 1456 1456 1456 1456 1456 1457 1457 1457 1458 1458 1458 1458 1458 1458 1458 1458 1458 1458 1458 1458 1458 1458 1458 1458 1458 1458 1458 1458 1458 1458 1457 1457 1457 1457 1457 1458 1458 1458 1458 1458 1458 1458 1458 1458 1458 1458 1457 1457 1457 1457 1457
1445 1446 1447 1447 1448 1449 1449 1450 1450 1450 1451 1451 1451 1452 1452 1452 1453 1453 1453 1454 1454 1454 1455 1455 1455 1456 1456 1456 1456 1456 1456 1456 1456 1456 1456 1456 1456 1456 1456 1456 1456 1456 1456 1456 1456 1456 1456 1456 1455 1455 1455 1455 1455 1456 1456 1456 1456 1456 1456 1456 1456 1456 1456 1456 1456 1456 1456 1455 1455
1443 1444 1445 1445 1446 1446 1447 1447 1448 1448 1449 1449 1449 1450 1450 1451 1451 1451 1451 1452 1452 1452 1453 1453 1453 1454 1454 1454 1454 1454 1455 1455 1455 1455 1455 1455 1454 1454 1454 1454 1454 1454 1454 1454 1454 1453 1453 1453 1453 1453 1453 1453 1453 1453 1453 1454 1454 1454 1454 1454 1454 1454 1454 1454 1454 1454 1454 1453 1453
1441 1442 1443 1443 1444 1444 1445 1445 1446 1446 1446 1447 1447 1448 1448 1448 1449 1449 1449 1450 1450 1451 1451 1451 1451 1451 1452 1452 1452 1452 1452 1452 1453 1453 1453 1453 1452 1452 1452 1452 1452 1452 1452 1452 1451 1451 1451 1451 1451 1451 1451 1451 1451 1451 1451 1451 1451 1452 1452 1452 1452 1452 1452 1452 1452 1452 1452 1451 1451
1439 1440 1441 1441 1442 1442 1443 1443 1444 1444 1444 1445 1445 1446 1446 1446 1447 1447 1447 1448 1448 1448 1449 1449 1449 1449 1450 1450 1450 1450 1451 1451 1451 1451 1451 1451 1451 1451 1451 1450 1450 1450 1450 1450 1450 1450 1449 1449 1449 1449 1449 1449 1448 1448 1448 1449 1449 1449 1450 1450 1450 1450 1450 1450 1450 1450 1450 1450 1450
1437 1438 1439 1439 1440 1441 1441 1441 1442 1442 1442 1443 1443 1444 1444 1444 1445 1445 1446 1446 1446 1446 1446 1447 1447 1447 1448 1448 1448 1448 1448 1449 1449 1449 1449 1449 1449 1449 1449 1448 1448 1448 1448 1448 1448 1448 1447 1447 1447 1447 1447 1446 1446 1446 1446 1446 1447 1447 1447 1447 1448 1448 1448 1448 1448 1448 1448 1448 1448
1436 1436 1437 1437 1438 1438 1439 1439 1440 1440 1441 1441 1441 1441 1442 1442 1443 1443 1443 1444 1444 1444 1445 1445 1445 1446 1446 1446 1446 1446 1447 1447 1447 1447 1447 1447 1447 1447 1447 1447 1447 1447 1447 1446 1446 1446 1446 1446 1445 1445 1445 1445 1444 1444 1444 1444 1445 1445 1445 1445 1446 1446 1446 1446 1446 1446 1446 1446 1446
1434 1435 1435 1436 1436 1436 1437 1437 1438 1438 1438 1439 1439 1440 1440 1441 1441 1441 1442 1442 1442 1442 1443 1443 1443 1444 1444 1444 1445 1445 1445 1445 1445 1446 1446 1446 1446 1446 1446 1445 1445 1445 1445 1445 1445 1444 1444 1444 1444 1443 1443 1443 1442 1442 1442 1442 1442 1442 1443 1443 1443 1444 1444 1444 1444 1444 1444 1443 1443
1432 1433 1433 1434 1434 1435 1435 1435 1436 1436 1436 1437 1437 1438 1438 1439 1439 1440 1440 1440 1441 1441 1441 1441 1442 1442 1442 1443 1443 1443 1443 1443 1444 1444 1444 1444 1444 1444 1444 1444 1444 1444 1444 1443 1443 1443 1442 1442 1442 1442 1441 1441 1441 1441 1441 1441 1441 1441 1441 1441 1441 1441 1441 1441 1441 1441 1441 1441 1441
1431 1431 1431 1432 1432 1433 1433 1433 1434 1434 1434 1435 1435 1436 1436 1437 1437 1438 1438 1438 1439 1439 1440 1440 1440 1441 1441 1441 1441 1441 1442 1442 1442 1442 1442 1442 1442 1442 1442 1442 1442 1442 1442 1442 1441 1441 1441 1441 1441 1440 1440 1440 1439 1439 1439 1439 1439 1439 1439 1439 1439 1439 1439 1439 1439 1439 1439 1439 1439
1429 1429 1430 1430 1430 1431 1431 1431 1432 1432 1432 1433 1434 1434 1435 1435 1436 1436 1436 1437 1437 1438 1438 1438 1439 1439 1439 1440 1440 1440 1440 1440 1440 1441 1441 1441 1441 1441 1441 1441 1441 1440 1440 1440 1440 1440 1440 1439 1439 1439 1438 1438 1438 1437 1437 1437 1437 1437 1437 1437 1437 1437 1437 1437 1437 1437 1437 1437 1437
1426 1427 1427 1428 1428 1429 1429 1430 1430 1431 1431 1431 1432 1432 1433 1433 1434 1434 1435 1436 1436 1436 1437 1437 1437 1438 1438 1438 1438 1438 1439 1439 1439 1439 1439 1439 1439 1439 1439 1439 1439 1439 1439 1439 1438 1438 1438 1438 1437 1437 1437 1436 1436 1436 1436 1435 1435 1435 1435 1435 1436 1436 1436 1435 1435 1435 1435 1435 1436
1425 1425 1426 1426 1426 1427 1427 1428 1429 1429 1430 1430 1431 1431 1431 1432 1432 1433 1433 1434 1435 1435 1436 1436 1436 1436 1436 1437 1437 1437 1437 1438 1438 1438 1438 1438 1438 1438 1438 1437 1437 1437 1437 1437 1437 1437 1436 1436 1436 1436 1435 1435 1434 1434 1434 1434 1433 1433 1433 1433 1433 1433 1433 1433 1433 1433 1433 1433 1433
1423 1423 1424 1424 1425 1426 1426 1426 1427 1428 1428 1429 1429 1430 1430 1431 1431 1431 1432 1433 1433 1434 1434 1435 1435 1435 1436 1436 1436 1436 1436 1436 1436 1436 1436 1436 1436 1436 1436 1436 1436 1436 1436 1436 1436 1435 1435 1435 1434 1434 1434 1433 1433 1432 1432 1432 1432 1432 1431 1431 1431 1431 1431 1431 1431 1431 1431 1431 1431
1421 1422 1422 1423 1423 1424 1425 1425 1426 1426 1427 1427 1428 1428 1429 1429 1430 1430 1431 1431 1432 1432 1433 1433 1434 1434 1434 1435 1435 1435 1435 1435 1436 1436 1436 1435 1435 1435 1435 1435 1435 1435 1435 1434 1434 1434 1434 1433 1433 1433 1432 1431 1431 1431 1431 1430 1430 1430 1430 1430 1429 1429 1429 1429 1429 1429 1428 1428 1428
Wind_Speed
18 18 17 17 17 16 16 15 15 15 15 15 15 15 15 15 15 15 15 15 15 15 15 15 15 14 14 14 14 14 14 14 14 14 15 15 15 15 15 15 15 15 15 15 14 14 14 14 14 14 14 14 14 14 15 15 15 15 14 14 14 14 14 14 14 14 14 14 14
18 18 17 17 17 16 16 16 16 15 15 15 15 15 15 15 15 16 16 16 16 16 16 16 15 15 15 15 15 15 15 15 15 15 15 15 16 16 16 16 16 16 16 15 15 15 15 15 15 15 15 15 15 15 15 15 15 15 15 14 14 14 14 14 14 14 14 14 14
18 18 17 17 17 17 16 16 16 16 16 16 16 16 16 16 16 16 16 17 17 16 16 16 16 16 15 15 15 15 15 15 15 15 15 16 16 16 16 16 16 16 16 16 16 16 16 16 16 15 15 15 15 15 15 15 15 15 15 15 14 14 14 14 14 14 14 14 14
18 18 18 17 17 17 17 17 17 17 17 17 17 17 17 17 17 17 17 17 17 17 17 16 16 16 15 15 15 15 15 15 15 15 15 16 16 16 16 16 16 16 16 16 16 16 16 16 16 16 16 15 15 15 15 15 15 15 15 15 15 15 14 14 14 14 14 14 14
19 19 18 18 18 18 18 18 18 18 18 17 17 17 17 17 17 17 17 17 17 17 17 16 16 16 15 15 15 15 15 14 15 15 15 15 15 15 15 15 15 15 15 16 16 16 16 16 16 16 15 15 15 15 15 15 15 15 15 15 15 15 15 15 14 14 14 14 14
19 19 19 19 19 19 19 18 18 18 18 18 17 17 17 17 17 17 17 17 17 17 16 16 16 15 15 15 15 14 14 14 14 15 15 15 15 15 15 15 15 15 15 15 15 16 16 16 16 16 15 15 15 15 15 15 15 16 16 15 15 15 15 15 15 14 14 14 14
20 20 20 20 19 19 19 19 19 18 18 18 18 18 18 18 17 17 17 17 17 17 16 16 16 15 15 15 15 14 14 14 14 15 15 15 15 15 15 15 15 15 15 15 15 15 16 16 16 16 16 15 15 15 16 16 16 16 16 16 16 16 16 15 15 15 15 15 15
21 20 20 20 20 19 19 19 19 19 19 18 18 18 18 17 17 17 17 17 17 17 16 16 16 15 15 15 15 15 15 15 15 15 15 15 15 15 15 15 15 15 15 15 15 15 16 16 16 16 16 16 16 16 16 16 17 17 17 17 17 17 16 16 16 16 15 15 15
21 21 20 20 20 20 20 20 19 19 19 19 18 18 17 17 17 17 16 16 17 16 16 16 16 15 15 15 15 15 15 15 15 15 15 15 15 15 15 15 15 15 15 15 15 16 16 16 16 16 16 16 17 17 17 17 17 17 18 18 18 18 17 17 17 16 16 16 16
21 21 21 21 21 20 20 20 20 19 19 18 18 17 17 16 16 16 16 16 16 16 16 16 16 16 15 15 15 15 15 15 15 15 15 15 15 15 16 16 16 16 16 16 16 16 16 17 17 17 17 17 17 17 17 17 18 18 18 18 18 18 18 18 18 17 17 17 17
22 22 22 21 21 21 21 20 20 19 18 17 17 16 16 16 16 16 16 16 16 16 16 16 16 16 15 15 15 15 15 15 15 15 15 16 16 16 16 16 16 17 17 17 17 17 17 17 17 17 18 18 18 18 18 18 18 18 19 19 19 19 19 19 19 18 18 18 18
23 23 22 22 22 21 21 20 19 18 17 17 16 16 16 16 16 16 16 16 16 16 16 16 15 15 15 15 15 15 15 15 15 15 16 16 16 16 16 16 17 17 17 17 17 18 18 18 18 18 18 18 18 18 18 18 19 19 19 19 19 20 20 19 19 19 19 19 19
24 23 23 23 22 21 21 20 19 18 17 16 16 16 16 16 16 16 16 16 16 16 15 15 14 14 14 14 14 15 15 15 15 15 16 16 16 16 16 16 17 17 17 17 18 18 18 18 18 18 18 18 18 19 19 19 19 19 19 19 20 20 20 20 20 20 20 20 19
25 24 23 23 22 21 20 19 18 17 16 16 16 16 16 16 16 16 16 15 15 15 14 14 13 13 13 13 14 14 14 14 15 15 15 15 15 16 16 16 16 16 17 17 17 17 17 18 18 18 18 18 18 18 18 19 19 19 19 19 20 20 20 20 20 20 20 20 20
25 24 24 23 22 21 20 19 18 17 17 16 17 17 17 17 17 16 16 15 15 14 14 13 13 12 12 13 13 13 13 13 14 14 14 14 14 14 15 15 15 15 16 16 16 16 16 17 17 17 17 17 17 17 17 18 18 19 19 19 19 19 19 20 20 20 21 21 21
26 25 24 23 22 21 20 19 18 18 17 17 17 17 17 17 17 16 16 15 15 14 13 13 12 12 12 12 13 13 13 13 13 13 13 13 13 14 14 14 14 14 15 15 15 15 15 16 16 16 16 16 16 16 17 17 17 17 18 18 19 19 19 19 20 20 20 21 21
26 25 25 24 23 22 21 20 19 18 18 18 18 18 18 18 17 17 16 15 15 14 14 13 13 13 13 13 13 13 13 13 13 13 13 13 13 13 14 14 14 14 14 14 14 14 15 15 15 16 16 16 16 16 16 16 17 17 17 17 18 18 19 19 19 20 20 20 20
27 26 25 24 23 22 21 20 19 19 19 18 18 19 18 18 18 17 17 16 15 15 14 14 14 14 13 13 13 13 13 13 13 13 14 14 14 14 14 14 14 14 15 15 14 14 15 15 15 15 16 16 16 16 16 17 17 17 17 17 17 18 18 18 19 19 19 20 20
27 27 26 25 23 22 21 21 20 19 19 19 19 19 19 19 19 18 18 17 16 16 16 15 15 15 14 14 14 14 14 14 14 15 15 15 15 15 15 15 15 16 16 16 16 16 15 15 16 16 16 16 16 17 17 17 17 17 17 17 17 18 18 18 19 19 19 20 20
28 27 26 25 24 23 22 21 20 20 20 20 20 20 20 20 19 19 18 18 17 17 17 17 16 16 16 15 15 15 15 15 16 16 16 16 16 16 17 17 17 17 17 17 17 17 17 17 17 17 17 17 17 17 17 17 18 18 18 18 18 18 18 18 19 19 19 19 20
29 28 27 25 24 23 22 21 21 21 21 21 21 20 20 20 20 20 19 19 19 18 18 18 18 18 17 17 17 17 17 17 17 17 18 18 18 18 18 18 18 19 19 19 19 19 18 18 18 18 18 18 18 18 18 18 18 18 19 19 19 19 19 19 19 19 19 19 20
29 28 27 26 24 23 23 22 22 21 21 21 21 21 21 21 21 20 20 20 20 20 20 19 19 19 19 19 19 19 19 19 19 19 19 19 19 20 20 20 20 20 20 20 20 20 20 20 20 20 20 19 19 19 19 19 19 19 19 19 19 19 19 19 19 19 20 20 20
29 28 27 26 25 24 23 23 22 22 21 21 21 21 21 21 21 21 21 21 22 22 21 21 21 21 21 21 21 21 21 22 22 21 21 21 21 21 21 22 22 22 22 22 22 22 21 21 21 21 21 21 21 21 20 20 20 20 20 20 20 20 20 20 20 20 20 20 20
29 28 27 26 25 24 23 23 22 22 21 21 21 21 21 21 22 22 22 23 23 23 23 23 23 23 23 23 23 23 23 23 23 23 23 23 23 23 23 23 23 23 23 23 23 23 23 23 23 23 22 22 22 22 22 22 21 21 21 21 21 21 20 20 20 20 20 20 20
28 27 26 26 25 24 23 23 22 21 21 21 21 21 21 22 22 22 23 23 23 24 24 24 24 24 24 24 24 24 24 24 24 24 24 24 24 24 24 24 24 24 24 24 24 24 24 24 24 24 24 24 23 23 23 22 22 22 22 21 21 21 21 21 21 20 20 20 20
27 27 26 25 25 24 23 22 22 21 21 21 21 21 21 21 22 22 22 23 23 23 23 24 24 24 24 24 24 24 23 23 23 23 23 24 24 24 24 24 24 25 25 25 24 25 25 25 25 25 25 25 24 24 24 23 23 23 22 22 22 22 22 21 21 21 21 20 20
27 26 26 25 24 23 22 22 21 21 21 21 21 21 21 21 21 22 22 22 22 23 23 23 23 23 23 23 23 22 22 22 22 23 23 23 23 23 23 23 24 24 24 24 24 24 25 26 26 26 26 26 25 25 24 24 24 23 23 23 22 22 22 22 22 21 21 21 21
26 25 25 24 23 23 22 21 21 21 21 21 21 21 21 21 21 22 22 22 22 22 22 22 22 22 22 22 22 22 22 22 22 22 22 22 22 22 22 22 22 22 22 22 23 23 24 25 26 26 26 26 26 26 25 25 24 24 23 23 23 23 22 22 22 22 22 22 21
25 24 24 23 23 22 22 21 21 21 21 21 21 22 22 22 22 22 22 22 22 22 22 22 22 22 22 22 22 21 21 21 21 21 21 21 21 21 21 21 21 21 21 21 22 22 23 24 24 25 26 26 27 27 26 26 25 25 24 24 23 23 23 23 22 22 22 22 22
23 23 23 22 22 22 22 21 21 21 22 22 23 23 23 23 23 23 23 23 23 22 22 22 22 22 21 21 21 21 21 21 21 20 20 20 20 20 20 20 20 20 20 20 20 21 22 22 23 24 25 25 26 26 26 26 26 25 25 24 24 23 23 23 23 22 22 22 22
22 22 22 22 22 22 22 22 22 22 23 23 24 24 24 24 24 24 23 23 22 22 22 22 21 21 21 20 20 20 20 20 20 19 19 19 19 19 18 18 18 19 19 19 19 20 20 21 22 22 23 24 25 26 26 26 26 25 25 25 24 24 23 23 23 23 22 22 22
22 21 21 21 21 22 22 22 23 23 24 24 25 25 25 24 24 24 23 22 22 22 21 21 20 20 19 19 19 19 18 18 18 18 17 17 17 17 17 17 17 17 17 17 18 18 19 19 20 21 22 23 24 25 25 25 25 25 25 25 24 24 24 24 23 23 23 23 23
21 21 21 21 22 22 23 23 24 25 25 25 26 25 25 24 24 23 22 22 21 20 20 19 19 18 18 18 17 17 17 17 16 16 16 16 16 16 16 16 16 16 16 16 17 17 17 18 19 19 20 21 22 23 24 24 25 25 25 24 24 24 24 24 24 24 23 23 23
20 21 21 22 23 23 24 25 25 26 26 26 26 25 24 23 22 22 21 20 19 18 18 18 17 17 17 16 16 16 16 15 15 15 15 15 15 15 15 15 15 15 15 15 16 16 17 17 18 18 19 20 21 22 22 23 23 24 24 24 24 24 24 24 24 24 24 24 24
20 21 22 23 24 25 25 25 26 26 26 25 25 24 23 21 20 19 18 18 17 17 17 17 17 16 16 16 15 15 15 15 15 15 15 15 15 15 15 15 15 15 15 15 15 16 16 17 17 17 18 18 19 20 21 22 22 23 23 23 23 23 24 24 24 24 24 24 24
21 22 23 24 25 25 25 25 25 24 24 23 22 21 20 19 18 17 17 17 16 16 16 16 16 15 15 15 14 14 15 15 15 15 14 14 14 14 14 14 14 14 14 15 15 15 16 16 16 17 17 18 18 19 20 20 21 21 22 22 22 22 23 24 24 24 25 25 25
21 22 23 24 24 24 24 23 23 22 21 20 19 18 17 16 16 16 16 16 16 16 16 15 15 14 14 14 14 14 14 14 14 14 14 13 13 13 14 14 14 14 14 14 14 15 15 16 16 16 17 17 18 18 19 19 20 20 21 21 21 22 22 23 24 24 25 25 25
21 22 22 22 22 22 21 20 20 19 18 17 17 16 16 16 16 16 16 16 15 15 15 14 14 13 13 13 13 13 13 12 12 12 12 12 12 13 13 13 13 13 13 13 14 14 15 15 15 16 16 17 17 18 18 19 19 20 20 20 21 21 22 23 24 24 24 25 25
21 21 21 20 20 19 18 18 17 16 16 16 15 15 16 16 16 16 15 15 14 14 13 13 12 12 12 12 12 11 11 11 11 11 11 11 11 12 12 12 13 12 12 13 13 13 14 14 15 16 16 17 17 18 18 19 19 20 20 20 21 21 22 23 23 24 24 24 24
20 19 19 18 18 17 17 16 15 15 15 15 15 15 15 15 14 14 13 13 12 12 11 11 11 11 10 10 10 10 10 10 10 10 10 11 11 11 12 12 12 12 12 12 13 13 14 14 15 15 16 17 17 18 18 19 20 20 20 20 21 21 22 23 23 24 24 24 24
19 18 18 17 17 16 16 15 15 14 14 14 14 14 14 13 13 12 11 11 11 10 10 10 10 10 9 9 9 9 9 9 9 10 10 10 11 11 12 12 12 13 13 13 13 13 14 14 15 15 16 16 17 18 18 19 20 20 20 21 21 22 22 23 23 24 24 24 25
Wind_Direction
236 238 240 242 244 245 247 249 250 251 252 253 255 255 256 256 256 257 257 257 258 257 257 257 257 257 255 253 252 250 249 247 246 244 243 242 242 241 241 241 242 243 245 246 248 249 251 253 255 257 259 260 261 262 263 263 263 264 264 264 265 265 266 266 267 268 268 268 269
235 237 238 240 242 244 246 248 249 250 251 251 252 252 253 253 254 254 255 255 256 256 256 256 256 255 254 253 252 250 248 247 245 244 243 242 242 241 241 241 242 244 246 248 250 251 253 254 256 258 259 260 261 261 262 262 263 263 263 263 263 264 264 264 265 266 267 267 268
234 235 237 239 241 243 245 246 248 249 249 249 250 251 251 252 252 253 253 254 255 256 256 256 256 256 255 253 253 251 250 248 246 245 244 244 243 243 243 243 244 246 248 250 252 254 255 256 257 258 259 260 260 261 261 262 262 262 262 262 263 263 263 262 263 264 264 264 265
234 234 236 238 239 241 242 244 245 246 247 248 248 249 250 251 251 252 253 254 254 255 255 255 256 256 255 254 253 252 251 250 248 247 247 247 246 246 246 246 247 248 250 252 254 256 257 258 259 259 259 260 261 261 262 262 263 262 262 262 263 262 262 262 262 262 262 262 262
233 234 235 236 237 238 240 241 242 243 245 246 247 248 249 249 250 251 251 252 253 254 254 255 256 256 255 255 254 253 252 252 251 250 250 250 251 251 251 251 251 252 253 255 257 259 260 261 261 262 262 262 263 263 264 264 264 264 264 264 264 264 263 263 262 262 262 261 261
232 233 233 234 235 236 237 239 240 242 243 244 246 246 247 248 249 249 250 251 253 254 255 255 255 255 255 255 255 254 254 254 254 254 254 254 255 256 256 256 256 257 257 259 260 262 263 264 265 265 266 266 266 267 267 267 267 266 266 266 266 266 265 265 264 264 263 262 262
230 231 232 232 233 234 236 237 239 240 242 243 244 245 245 246 247 249 250 251 253 254 255 255 255 255 255 255 255 255 256 256 256 256 257 258 258 260 260 261 261 261 262 263 264 265 266 267 268 269 270 270 270 270 270 270 270 269 269 269 268 268 267 266 266 266 265 264 263
229 230 231 232 232 234 235 236 237 239 240 241 242 243 245 246 247 248 250 251 252 254 255 256 256 256 256 256 256 256 257 257 257 258 259 260 261 262 263 264 265 265 265 266 267 268 269 270 271 272 273 273 274 273 273 273 273 272 272 272 271 271 270 269 269 268 267 266 266
228 229 230 231 232 233 234 236 237 238 240 241 242 244 245 247 248 249 250 251 252 254 255 256 256 257 257 257 257 258 258 258 259 259 260 261 262 263 265 266 267 267 267 268 268 269 270 271 273 274 275 275 275 275 275 275 275 275 275 274 274 274 274 273 272 271 270 269 269
228 229 230 231 232 233 234 236 237 239 240 242 244 245 247 248 249 250 251 252 254 255 255 256 257 257 257 258 259 259 259 260 260 261 262 263 264 265 266 267 268 268 269 269 269 269 270 271 272 273 274 274 275 275 275 275 276 276 276 276 276 276 276 276 275 274 274 272 272
230 230 230 231 232 234 235 236 238 240 242 243 245 247 249 250 251 252 253 255 256 256 256 257 258 258 259 260 260 261 261 262 262 263 263 264 265 265 266 267 268 269 270 270 270 270 270 270 271 272 272 273 273 274 274 274 275 275 276 277 277 277 277 277 277 277 276 276 275
231 231 232 233 234 235 236 238 240 242 243 245 247 249 251 252 253 254 256 257 258 258 259 260 260 260 261 261 261 261 261 262 262 263 263 264 264 265 266 267 268 269 270 270 271 271 271 271 271 271 271 272 273 273 273 273 273 274 274 275 276 277 277 278 278 278 277 278 277
232 233 234 235 236 237 238 240 242 244 245 247 249 251 252 253 254 256 257 258 259 260 261 261 261 261 261 261 261 261 261 261 262 262 263 263 264 265 265 266 267 268 269 271 272 272 273 273 273 272 272 272 273 273 274 274 273 273 273 273 274 275 276 277 277 277 277 278 278
233 234 236 237 238 239 241 242 244 246 247 249 250 251 253 254 255 257 258 259 260 260 260 261 261 260 260 260 260 260 260 260 261 261 262 262 263 264 265 266 267 268 269 270 272 273 274 275 275 275 275 274 274 274 274 274 274 274 274 273 273 273 274 275 276 276 277 277 277
234 235 237 238 240 241 243 244 246 247 248 249 250 251 252 254 255 256 257 257 258 258 259 259 258 257 257 257 257 258 258 259 260 261 261 262 263 264 265 266 267 267 268 269 271 273 274 276 276 277 277 277 277 276 275 275 274 275 275 275 274 274 273 273 274 275 276 276 276
236 237 238 239 241 242 244 245 247 247 248 248 250 251 252 253 254 254 254 255 255 255 256 255 255 254 253 254 255 256 257 259 259 261 262 262 263 264 265 266 267 268 269 270 271 273 274 276 277 278 279 279 279 278 277 276 276 276 276 276 276 275 275 274 274 274 275 276 276
237 238 239 240 241 243 244 245 246 247 247 248 249 250 251 252 252 253 253 253 253 254 254 254 253 253 253 253 254 256 257 259 261 262 263 263 264 265 266 268 269 271 272 272 273 273 274 275 276 278 279 279 280 280 279 279 278 277 277 277 276 276 276 276 275 275 275 276 277
238 239 240 241 242 243 244 245 246 246 246 246 248 249 250 251 252 252 252 252 253 254 255 255 254 254 255 255 256 257 259 261 262 264 265 266 267 268 269 271 272 273 274 275 275 275 274 274 275 276 278 279 279 280 280 280 279 279 278 278 277 277 277 277 276 276 276 276 277
239 240 240 241 242 243 244 245 245 245 246 246 247 249 250 251 252 253 253 254 254 255 256 257 257 258 259 259 260 260 261 263 264 266 267 268 269 271 272 273 274 275 276 276 277 277 276 275 275 276 276 277 278 279 279 280 280 280 280 279 278 278 278 278 278 278 277 277 277
240 240 241 242 242 243 244 244 245 245 245 246 247 248 250 251 253 254 255 256 257 257 258 260 261 262 263 264 264 264 264 265 266 268 269 270 271 272 273 274 275 276 276 277 277 277 277 276 276 276 276 277 277 278 279 279 280 280 280 280 280 280 279 279 279 279 278 278 278
241 241 242 242 243 244 244 244 245 245 246 247 248 249 251 253 254 256 257 259 260 261 262 263 264 266 267 267 268 268 268 268 269 270 271 272 273 274 274 275 276 276 276 277 277 277 277 276 276 276 276 276 277 277 277 278 278 279 280 280 280 280 280 280 280 280 280 279 279
241 241 242 243 244 244 245 245 246 247 248 248 250 251 252 254 256 258 260 261 262 264 265 266 267 269 269 270 270 271 271 272 272 272 273 273 274 274 275 275 276 276 276 277 277 277 276 276 276 276 275 276 276 276 276 277 277 278 279 279 280 280 280 280 280 281 280 281 281
241 242 243 243 245 246 246 247 248 249 250 251 252 253 254 256 258 259 261 262 264 266 267 269 269 270 271 272 272 273 274 274 275 275 275 276 276 275 275 275 275 276 276 276 276 276 276 276 275 275 275 274 275 275 275 276 276 277 277 278 279 279 280 280 280 281 281 281 281
242 242 243 244 245 247 248 249 250 251 252 253 255 256 257 258 259 260 262 263 265 267 268 269 270 271 272 272 273 274 275 276 277 277 277 277 277 277 276 276 276 276 276 276 276 276 275 275 274 273 273 273 273 274 274 274 275 276 277 277 278 279 280 281 281 282 282 282 282
242 243 244 245 246 247 249 250 251 253 254 256 257 258 258 259 260 261 262 264 265 267 268 269 270 271 271 272 273 274 275 276 277 278 278 279 278 278 277 277 276 276 275 275 275 275 274 274 273 273 272 272 272 272 273 273 274 275 276 277 278 279 280 281 282 283 283 284 283
243 244 245 245 246 248 249 251 252 254 256 257 258 259 259 260 261 262 263 264 265 266 267 268 269 270 271 272 273 274 275 276 277 277 278 278 279 278 278 277 277 276 276 275 275 274 274 273 273 272 272 272 271 272 272 273 273 274 275 276 278 279 280 282 283 284 285 285 284
244 244 245 245 246 247 248 251 253 254 256 257 258 259 260 261 262 262 263 264 265 266 267 268 269 270 271 272 273 274 275 276 276 277 277 277 278 278 278 278 277 277 276 276 275 274 273 273 272 272 272 271 271 271 272 272 273 274 275 276 277 279 281 282 283 285 285 285 285
245 244 243 244 244 246 248 250 251 253 255 256 258 259 260 261 261 262 263 264 265 266 267 268 269 270 271 272 273 274 275 275 276 276 276 276 277 277 277 278 277 277 277 276 275 274 273 273 272 272 272 272 272 271 271 271 272 273 274 275 277 279 280 282 283 284 285 286 286
243 241 241 242 243 245 247 249 251 253 254 256 257 258 259 260 261 262 263 263 264 265 266 268 269 270 271 271 272 273 273 274 274 275 275 275 275 276 276 277 277 277 277 276 276 275 274 273 273 273 273 273 273 272 271 271 271 272 273 274 275 277 279 280 282 283 284 285 286
239 238 239 240 242 244 246 248 250 252 254 255 257 258 259 260 261 262 262 263 264 265 266 267 268 268 269 270 270 271 271 272 272 273 273 274 274 275 275 275 276 276 276 276 276 275 275 274 274 273 273 273 273 273 272 272 271 271 272 273 273 275 276 278 279 280 282 283 284
235 236 237 240 242 244 247 249 250 252 253 255 256 257 259 260 261 262 263 263 264 265 265 266 266 267 267 268 268 269 269 269 270 271 272 273 273 274 274 274 274 274 275 276 276 276 276 275 274 274 273 273 273 273 273 273 273 273 272 273 273 274 275 276 277 279 280 281 282
234 235 238 240 243 245 247 249 251 252 254 255 256 257 259 260 261 262 262 263 263 263 264 264 264 265 265 265 266 266 267 268 269 270 271 272 273 273 273 273 274 274 275 276 277 277 277 277 276 275 274 273 273 273 273 274 274 274 274 274 274 275 276 277 278 279 280 281 281
234 237 240 242 245 247 248 250 251 253 254 255 257 258 259 259 260 261 261 261 261 261 261 261 261 262 262 263 264 265 266 267 269 270 271 272 272 273 274 274 275 276 278 279 279 279 278 278 278 277 276 275 274 274 274 274 275 275 275 276 276 277 277 278 279 280 281 282 282
236 239 242 245 246 248 250 251 252 253 254 256 257 257 258 258 258 258 258 257 257 257 257 257 257 258 259 261 263 264 266 268 269 270 271 272 273 274 275 276 278 279 280 280 280 280 280 280 280 279 278 277 276 276 276 276 276 276 277 278 278 279 279 279 280 280 281 282 283
239 242 244 246 248 249 251 251 253 254 255 255 256 256 256 256 255 254 253 252 252 252 252 253 254 256 258 260 263 265 267 269 270 271 272 274 275 277 278 279 280 280 281 281 281 281 281 281 282 281 280 279 278 278 278 278 279 279 279 280 280 280 280 281 281 281 281 282 282
242 244 246 247 249 250 251 252 253 253 253 253 253 252 251 250 249 248 247 247 247 249 250 252 254 257 259 262 264 266 268 270 271 273 275 277 279 280 281 281 282 282 282 282 282 282 282 283 283 283 282 282 281 281 281 282 282 281 281 281 281 282 282 282 282 282 282 282 282
245 246 247 248 249 249 250 250 250 250 249 249 247 246 244 243 242 242 242 243 246 248 251 253 255 258 261 263 265 267 268 271 273 276 279 281 282 283 283 283 283 284 284 285 285 284 284 284 284 284 284 284 284 284 284 284 284 283 283 283 283 283 283 282 281 281 281 282 282
247 248 247 247 247 246 246 245 245 244 243 241 240 238 237 236 237 238 240 242 245 248 251 254 256 259 261 263 264 267 269 272 276 279 281 283 284 284 285 285 286 287 287 287 287 286 286 285 285 285 284 285 285 285 285 284 284 284 284 284 284 283 283 282 281 281 281 281 282
247 246 244 243 241 240 239 238 237 236 235 234 233 232 232 233 235 237 239 242 245 247 250 253 255 257 259 261 264 267 270 274 277 280 282 283 285 285 286 287 288 289 290 290 289 288 287 286 286 285 285 285 285 285 285 284 285 285 285 285 284 283 283 282 282 282 282 282 282
243 241 238 235 234 233 232 232 231 230 230 229 229 230 230 232 234 236 238 240 242 244 247 249 251 254 256 259 263 267 271 274 277 279 281 283 285 286 287 289 290 291 292 291 291 290 289 288 287 287 286 286 285 285 285 285 285 286 286 285 285 285 284 284 284 284 284 284 283
237 233 230 228 228 228 228 228 227 227 227 227 227 228 229 230 231 232 234 236 237 240 242 245 248 251 254 258 262 267 271 275 277 280 282 284 286 288 289 290 291 292 292 292 291 291 290 290 289 288 288 287 287 287 287 286 286 287 288 288 288 287 287 287 286 286 286 286 285